Charleston, SC

8:21 PM EDT on May 26, 2017 (GMT -0400)
Charleston Air Force Base-International

Weather History for KCHS - January, 2013

Change the Weather History Date:

Thursday, January 24, 2013

  Actual Average Record
Temperature  
Mean Temperature 51 °F 48 °F  
Max Temperature 68 °F 59 °F 79 °F (1950)
Min Temperature 34 °F 38 °F 17 °F (2003)
Degree Days  
Heating Degree Days 14 17  
Month to date heating degree days 225 408  
Since 1 July heating degree days 923 1146  
Cooling Degree Days 0 0  
Month to date cooling degree days 17 0  
Year to date cooling degree days 17 0  
Growing Degree Days 2 (Base 50)    
Moisture  
Dew Point 32 °F    
Average Humidity 49    
Maximum Humidity 71    
Minimum Humidity 26    
Precipitation  
Precipitation 0.00 in 0.13 in 2.12 in (1958)
Month to date precipitation 0.20 2.88  
Year to date precipitation 0.20 2.88  
Snow  
Snow 0.00 in 0.00 in - ()
Month to date snowfall 0.0  
Since 1 July snowfall 0.0 0.3  
Snow Depth 0.00 in    
Sea Level Pressure  
Sea Level Pressure 30.23 in    
Wind  
Wind Speed 14 mph (NW)    
Max Wind Speed 25 mph    
Max Gust Speed 31 mph    
Visibility 10 miles    
Events      
T = Trace of Precipitation, MM = Missing Value Source: NWS Daily Summary

Daily Weather History Graph

Daily Weather History Graph

Search for Another Location

Airport or City:

Trip Planner

Search our weather history database for the weather conditions in past years. The results will help you decide how hot, cold, wet, or windy it might be!

Date:

Astronomy

Jan. 24, 2013 Rise Set
Actual Time 7:19 AM EST 5:45 PM EST
Civil Twilight 6:53 AM EST 6:11 PM EST
Nautical Twilight 6:23 AM EST 6:41 PM EST
Astronomical Twilight 5:54 AM EST 7:10 PM EST
Moon 3:47 PM EST (1/24) 5:14 AM EST (1/24)
Length of Visible Light 11h 18m
Length of Day
10h 25m
Waxing Gibbous, 94% of the Moon is Illuminated
Jan 24
Waxing Gibbous
Jan 26
Full
Feb 3
Last Quarter
Feb 10
New
Feb 17
First Quarter

Hourly Weather History & Observations

Time (EST) Temp. Windchill Dew Point Humidity Pressure Visibility Wind Dir Wind Speed Gust Speed Precip Events Conditions
12:56 AM 46.0 °F 41.4 °F 34.0 °F 63% 30.18 in 10.0 mi SW 9.2 mph - N/A   Clear
1:56 AM 46.9 °F - 35.1 °F 63% 30.18 in 10.0 mi WSW 12.7 mph - N/A   Clear
2:56 AM 46.9 °F - 36.0 °F 66% 30.15 in 10.0 mi WSW 11.5 mph - N/A   Partly Cloudy
3:56 AM 46.9 °F - 37.0 °F 68% 30.13 in 10.0 mi WSW 9.2 mph - N/A   Partly Cloudy
4:56 AM 48.0 °F - 37.9 °F 68% 30.12 in 10.0 mi WSW 9.2 mph - N/A   Partly Cloudy
5:56 AM 51.1 °F - 39.9 °F 66% 30.12 in 10.0 mi West 15.0 mph 24.2 mph N/A   Clear
6:56 AM 50.0 °F - 39.9 °F 68% 30.13 in 10.0 mi WSW 10.4 mph - N/A   Partly Cloudy
7:56 AM 50.0 °F - 41.0 °F 71% 30.14 in 10.0 mi West 11.5 mph - N/A   Partly Cloudy
8:56 AM 54.0 °F - 43.0 °F 66% 30.15 in 10.0 mi West 16.1 mph 24.2 mph N/A   Partly Cloudy
9:56 AM 57.9 °F - 43.0 °F 58% 30.17 in 10.0 mi West 12.7 mph 24.2 mph N/A   Partly Cloudy
10:56 AM 62.1 °F - 41.0 °F 46% 30.17 in 10.0 mi NW 18.4 mph 24.2 mph N/A   Partly Cloudy
11:56 AM 64.9 °F - 37.0 °F 36% 30.15 in 10.0 mi NW 15.0 mph 21.9 mph N/A   Partly Cloudy
12:56 PM 66.9 °F - 32.0 °F 27% 30.14 in 10.0 mi NW 13.8 mph 24.2 mph N/A   Partly Cloudy
1:56 PM 66.9 °F - 30.9 °F 26% 30.14 in 10.0 mi NNW 18.4 mph 24.2 mph N/A   Scattered Clouds
2:56 PM 66.9 °F - 33.1 °F 28% 30.16 in 10.0 mi North 13.8 mph 26.5 mph N/A   Mostly Cloudy
3:56 PM 59.0 °F - 36.0 °F 42% 30.21 in 10.0 mi NE 16.1 mph - N/A   Mostly Cloudy
4:56 PM 53.1 °F - 32.0 °F 45% 30.25 in 10.0 mi NE 15.0 mph - N/A   Mostly Cloudy
5:56 PM 48.0 °F - 25.0 °F 41% 30.32 in 10.0 mi NE 15.0 mph - N/A   Mostly Cloudy
6:56 PM 45.0 °F 38.5 °F 23.0 °F 42% 30.36 in 10.0 mi ENE 13.8 mph 18.4 mph N/A   Scattered Clouds
7:56 PM 43.0 °F 35.7 °F 19.9 °F 40% 30.40 in 10.0 mi ENE 15.0 mph 21.9 mph N/A   Partly Cloudy
8:56 PM 41.0 °F 32.5 °F 19.0 °F 41% 30.43 in 10.0 mi ENE 17.3 mph - N/A   Clear
9:56 PM 37.9 °F 30.0 °F 18.0 °F 45% 30.45 in 10.0 mi NE 12.7 mph 20.7 mph N/A   Clear
10:56 PM 37.0 °F 28.9 °F 19.0 °F 48% 30.47 in 10.0 mi ENE 12.7 mph 24.2 mph N/A   Clear
11:56 PM 34.0 °F 26.6 °F 19.0 °F 54% 30.46 in 10.0 mi ENE 9.2 mph 20.7 mph N/A   Scattered Clouds